パンスターズ彗星

C/2017 E3 ( PanSTARRS )

English version
Home page
Updated on October 7, 2017

---------------------------------------------------------------------

・ プロフィール

発見日 2017年3月7日
発見光度 19.2等
発見者 Pan-STARRS 1 telescope (Haleakala)

・ 写真集

・ 軌道要素

Epoch 2017 June 16.0 TT = JDT 2457920.5
T 2017 May 31.47441 TT                                  MPCW
q   5.9153634            (2000.0)            P               Q
z  -0.0008432      Peri.  333.65423     -0.77472045     -0.14246089
 +/-0.0000039      Node   220.75796     -0.26809345     -0.80837123
e   1.0049879      Incl.   70.66597     -0.57265533     +0.57117498
From 191 observations 2017 Mar. 7-July 22, mean residual 0".5.

・ 光度変化

        m1 = 6.0 + 5 logΔ + 10.0 log r

---------------------------------------------------------------------

軌道要素はM.P.E.C. 2017-T14に掲載されたものです。
光度グラフはComet for Windowsで作成したものです。

---------------------------------------------------------------------

Copyright(C) Seiichi Yoshida (comet@aerith.net). All rights reserved.